AZA83RT EDDP-LIMC

Flight info

Callsign AZA83RT
Flight time 1h 24m
Altitude 34000
Route NEVKO2S NEVKO Q243 BAMKI Z94 KOMIB DCT TEDGO DCT SONOM DCT GERSA DCT SOSON DCT DEGAD Z424 RIXUV
Aircraft MD82/M-SDFGIRWY/S

Departure

Time 2026-05-06 14:19
Airport Leipzig/Halle Airport (EDDP)

Arrival

Time 2026-05-06 15:44
Airport Milan Malpensa International Airport (LIMC)
Time Latitude Longitude Altitude Speed Heading
2026-05-06 13:43 51.41936 12.21771 424 ft 0 kts 15°
2026-05-06 14:07 51.41918 12.21764 428 ft 4 kts 15°
2026-05-06 14:07 51.41893 12.21752 437 ft 3 kts 15°
2026-05-06 14:08 51.41873 12.21743 424 ft 4 kts 29°
2026-05-06 14:08 51.41860 12.21723 425 ft 4 kts 86°
2026-05-06 14:08 51.41865 12.21687 423 ft 4 kts 105°
2026-05-06 14:08 51.41868 12.21669 428 ft 3 kts 105°
2026-05-06 14:10 51.41864 12.21694 423 ft 7 kts 105°
2026-05-06 14:11 51.41841 12.21825 436 ft 16 kts 105°
2026-05-06 14:11 51.41810 12.22000 428 ft 16 kts 105°
2026-05-06 14:11 51.41783 12.22174 436 ft 16 kts 107°
2026-05-06 14:11 51.41751 12.22348 430 ft 16 kts 104°
2026-05-06 14:12 51.41725 12.22504 436 ft 13 kts 105°
2026-05-06 14:12 51.41703 12.22628 447 ft 12 kts 105°
2026-05-06 14:12 51.41678 12.22778 452 ft 16 kts 105°
2026-05-06 14:12 51.41646 12.22963 458 ft 19 kts 105°
2026-05-06 14:13 51.41610 12.23175 465 ft 21 kts 105°
2026-05-06 14:13 51.41605 12.23430 467 ft 25 kts 85°
2026-05-06 14:13 51.41618 12.23719 472 ft 26 kts 85°
2026-05-06 14:13 51.41633 12.24022 476 ft 27 kts 86°
2026-05-06 14:14 51.41646 12.24307 476 ft 25 kts 85°
2026-05-06 14:14 51.41659 12.24588 480 ft 24 kts 86°
2026-05-06 14:14 51.41727 12.24801 478 ft 22 kts 13°
2026-05-06 14:14 51.41875 12.24857 486 ft 21 kts 13°
2026-05-06 14:15 51.42021 12.24913 487 ft 23 kts 14°
2026-05-06 14:15 51.42174 12.24971 485 ft 22 kts 13°
2026-05-06 14:15 51.42335 12.25033 477 ft 25 kts 13°
2026-05-06 14:15 51.42511 12.25102 473 ft 28 kts 14°
2026-05-06 14:16 51.42707 12.25176 462 ft 30 kts 13°
2026-05-06 14:16 51.42868 12.25238 453 ft 19 kts 13°
2026-05-06 14:16 51.42983 12.25334 451 ft 19 kts 64°
2026-05-06 14:16 51.42999 12.25531 452 ft 18 kts 86°
2026-05-06 14:17 51.43008 12.25729 451 ft 18 kts 81°
2026-05-06 14:17 51.43097 12.25802 451 ft 16 kts 353°
2026-05-06 14:17 51.43181 12.25701 452 ft 15 kts 296°
2026-05-06 14:17 51.43228 12.25546 450 ft 16 kts 295°
2026-05-06 14:18 51.43278 12.25377 452 ft 17 kts 293°
2026-05-06 14:18 51.43291 12.25116 450 ft 43 kts 265°
2026-05-06 14:18 51.43251 12.24287 436 ft 107 kts 265°
2026-05-06 14:18 51.43183 12.22806 431 ft 160 kts 265°
2026-05-06 14:19 51.43072 12.20866 765 ft 178 kts 266°
2026-05-06 14:19 51.42950 12.18927 1625 ft 171 kts 266°
2026-05-06 14:19 51.42871 12.17115 2349 ft 166 kts 266°
2026-05-06 14:19 51.42803 12.15273 2898 ft 172 kts 265°
2026-05-06 14:20 51.42723 12.13292 3244 ft 185 kts 265°
2026-05-06 14:20 51.42631 12.11133 3499 ft 202 kts 265°
2026-05-06 14:20 51.42524 12.08747 3604 ft 231 kts 265°
2026-05-06 14:20 51.42398 12.06047 3876 ft 251 kts 265°
2026-05-06 14:21 51.42264 12.03209 4266 ft 257 kts 264°
2026-05-06 14:21 51.42129 12.00362 4688 ft 261 kts 264°
2026-05-06 14:21 51.41982 11.97464 5411 ft 260 kts 259°
2026-05-06 14:21 51.41335 11.94791 6114 ft 258 kts 230°
2026-05-06 14:22 51.40061 11.92831 6761 ft 257 kts 220°
2026-05-06 14:22 51.38673 11.90983 7091 ft 261 kts 220°
2026-05-06 14:22 51.37248 11.89114 7565 ft 266 kts 219°
2026-05-06 14:22 51.35803 11.87271 8284 ft 266 kts 219°
2026-05-06 14:23 51.34359 11.85459 8948 ft 268 kts 218°
2026-05-06 14:23 51.32885 11.83601 9614 ft 271 kts 219°
2026-05-06 14:23 51.31389 11.81698 10007 ft 283 kts 219°
2026-05-06 14:23 51.29797 11.79649 10160 ft 302 kts 219°
2026-05-06 14:24 51.28112 11.77461 10345 ft 319 kts 219°
2026-05-06 14:24 51.26385 11.75202 10516 ft 321 kts 220°
2026-05-06 14:24 51.24652 11.72926 10601 ft 322 kts 220°
2026-05-06 14:24 51.22924 11.70653 10754 ft 331 kts 220°
2026-05-06 14:25 51.21127 11.68287 11296 ft 334 kts 219°
2026-05-06 14:25 51.19331 11.65925 11946 ft 334 kts 220°
2026-05-06 14:25 51.17548 11.63583 12490 ft 337 kts 220°
2026-05-06 14:25 51.15771 11.61253 13060 ft 339 kts 219°
2026-05-06 14:26 51.13938 11.58854 13592 ft 342 kts 219°
2026-05-06 14:26 51.12085 11.56433 14090 ft 345 kts 219°
2026-05-06 14:26 51.10228 11.54010 14627 ft 346 kts 219°
2026-05-06 14:26 51.08355 11.51568 15110 ft 349 kts 219°
2026-05-06 14:27 51.06482 11.49141 15596 ft 352 kts 219°
2026-05-06 14:27 51.04566 11.46673 16098 ft 354 kts 219°
2026-05-06 14:27 51.02640 11.44196 16611 ft 356 kts 219°
2026-05-06 14:27 51.00700 11.41700 17093 ft 359 kts 219°
2026-05-06 14:28 50.98761 11.39199 17571 ft 362 kts 219°
2026-05-06 14:28 50.96795 11.36663 18060 ft 365 kts 219°
2026-05-06 14:28 50.94841 11.34144 18462 ft 368 kts 219°
2026-05-06 14:28 50.92837 11.31569 18874 ft 370 kts 219°
2026-05-06 14:29 50.90828 11.28990 19327 ft 372 kts 219°
2026-05-06 14:29 50.88811 11.26399 19731 ft 375 kts 219°
2026-05-06 14:29 50.86774 11.23787 20132 ft 377 kts 219°
2026-05-06 14:29 50.84750 11.21189 20573 ft 379 kts 219°
2026-05-06 14:30 50.82692 11.18552 20996 ft 381 kts 220°
2026-05-06 14:30 50.80620 11.15893 21406 ft 384 kts 220°
2026-05-06 14:30 50.78552 11.13243 21738 ft 389 kts 219°
2026-05-06 14:30 50.76440 11.10537 22143 ft 391 kts 220°
2026-05-06 14:31 50.74323 11.07844 22591 ft 392 kts 219°
2026-05-06 14:31 50.72181 11.05140 22971 ft 396 kts 219°
2026-05-06 14:31 50.70010 11.02403 23352 ft 398 kts 220°
2026-05-06 14:31 50.67863 10.99693 23710 ft 400 kts 219°
2026-05-06 14:32 50.65685 10.96934 24132 ft 400 kts 219°
2026-05-06 14:32 50.63539 10.94214 24564 ft 399 kts 219°
2026-05-06 14:32 50.61355 10.91447 24949 ft 400 kts 219°
2026-05-06 14:32 50.59200 10.88722 25333 ft 401 kts 219°
2026-05-06 14:33 50.57008 10.85956 25698 ft 403 kts 218°
2026-05-06 14:33 50.54809 10.83185 26087 ft 404 kts 218°
2026-05-06 14:33 50.52639 10.80452 26482 ft 404 kts 218°
2026-05-06 14:33 50.50433 10.77675 26877 ft 404 kts 218°
2026-05-06 14:34 50.48231 10.74909 27234 ft 405 kts 218°
2026-05-06 14:34 50.46023 10.72139 27579 ft 407 kts 218°
2026-05-06 14:34 50.43835 10.69395 28047 ft 406 kts 217°
2026-05-06 14:34 50.41637 10.66655 28640 ft 401 kts 217°
2026-05-06 14:35 50.39459 10.63951 29240 ft 396 kts 217°
2026-05-06 14:35 50.37287 10.61258 29543 ft 399 kts 216°
2026-05-06 14:35 50.35123 10.58578 29673 ft 402 kts 216°
2026-05-06 14:35 50.32921 10.55853 29986 ft 401 kts 216°
2026-05-06 14:36 50.30752 10.53168 30537 ft 394 kts 217°
2026-05-06 14:36 50.28625 10.50538 30971 ft 391 kts 217°
2026-05-06 14:36 50.26486 10.47893 31241 ft 391 kts 217°
2026-05-06 14:36 50.24346 10.45244 31465 ft 392 kts 217°
2026-05-06 14:37 50.22228 10.42623 31706 ft 392 kts 217°
2026-05-06 14:37 50.20086 10.39973 31991 ft 391 kts 218°
2026-05-06 14:37 50.17948 10.37328 32251 ft 391 kts 218°
2026-05-06 14:37 50.15815 10.34699 32561 ft 389 kts 218°
2026-05-06 14:38 50.13713 10.32108 32878 ft 387 kts 218°
2026-05-06 14:38 50.11611 10.29516 33155 ft 385 kts 218°
2026-05-06 14:38 50.09511 10.26908 33389 ft 385 kts 219°
2026-05-06 14:38 50.07454 10.24393 33603 ft 385 kts 213°
2026-05-06 14:39 50.02595 10.20732 33719 ft 394 kts 204°
2026-05-06 14:39 49.97476 10.17394 33747 ft 403 kts 205°
2026-05-06 14:40 49.92307 10.13929 33751 ft 407 kts 206°
2026-05-06 14:40 49.87152 10.10355 33758 ft 404 kts 206°
2026-05-06 14:41 49.82035 10.06777 33760 ft 403 kts 206°
2026-05-06 14:41 49.76978 10.03259 33766 ft 402 kts 206°
2026-05-06 14:42 49.71860 9.99719 33768 ft 399 kts 206°
2026-05-06 14:42 49.66876 9.96290 33783 ft 397 kts 206°
2026-05-06 14:43 49.61812 9.92831 33816 ft 398 kts 206°
2026-05-06 14:43 49.56899 9.89462 33799 ft 404 kts 205°
2026-05-06 14:44 49.51801 9.85974 33796 ft 402 kts 205°
2026-05-06 14:45 49.44202 9.80794 33799 ft 395 kts 205°
2026-05-06 14:45 49.39158 9.77369 33801 ft 397 kts 205°
2026-05-06 14:46 49.34108 9.73951 33805 ft 398 kts 205°
2026-05-06 14:46 49.29079 9.70551 33802 ft 397 kts 205°
2026-05-06 14:47 49.24018 9.67165 33789 ft 393 kts 205°
2026-05-06 14:47 49.19020 9.63816 33800 ft 393 kts 205°
2026-05-06 14:48 49.14014 9.60457 33799 ft 395 kts 205°
2026-05-06 14:48 49.08995 9.57100 33794 ft 394 kts 205°
2026-05-06 14:49 49.03974 9.53741 33796 ft 394 kts 205°
2026-05-06 14:49 48.99767 9.50935 33799 ft 395 kts 205°
2026-05-06 14:50 48.94753 9.47587 33811 ft 397 kts 204°
2026-05-06 14:50 48.89681 9.44222 33785 ft 397 kts 205°
2026-05-06 14:51 48.84651 9.40894 33790 ft 392 kts 205°
2026-05-06 14:51 48.79649 9.37590 33791 ft 394 kts 205°
2026-05-06 14:52 48.74595 9.34257 33800 ft 396 kts 205°
2026-05-06 14:52 48.69558 9.30942 33800 ft 397 kts 205°
2026-05-06 14:53 48.64470 9.27599 33801 ft 398 kts 205°
2026-05-06 14:53 48.59338 9.24610 33799 ft 397 kts 198°
2026-05-06 14:54 48.54010 9.22401 33803 ft 398 kts 197°
2026-05-06 14:54 48.48669 9.20187 33810 ft 398 kts 198°
2026-05-06 14:55 48.43333 9.17872 33806 ft 399 kts 198°
2026-05-06 14:55 48.37990 9.15503 33814 ft 400 kts 198°
2026-05-06 14:56 48.32668 9.13140 33828 ft 398 kts 198°
2026-05-06 14:56 48.27369 9.10806 33837 ft 396 kts 198°
2026-05-06 14:57 48.22086 9.08489 33837 ft 395 kts 198°
2026-05-06 14:57 48.16834 9.06206 33842 ft 396 kts 198°
2026-05-06 14:58 48.11540 9.03913 33847 ft 396 kts 198°
2026-05-06 14:58 48.06235 9.01609 33838 ft 396 kts 198°
2026-05-06 14:59 48.00954 8.99320 33850 ft 393 kts 198°
2026-05-06 14:59 47.95729 8.97061 33853 ft 393 kts 198°
2026-05-06 15:00 47.90463 8.94787 33857 ft 394 kts 198°
2026-05-06 15:00 47.85199 8.92521 33861 ft 392 kts 198°
2026-05-06 15:01 47.79976 8.90280 33857 ft 393 kts 198°
2026-05-06 15:01 47.74727 8.87873 33857 ft 393 kts 200°
2026-05-06 15:02 47.69553 8.85274 33866 ft 394 kts 200°
2026-05-06 15:02 47.64341 8.82643 33874 ft 395 kts 200°
2026-05-06 15:03 47.59154 8.80067 33875 ft 395 kts 200°
2026-05-06 15:03 47.53931 8.77502 33899 ft 395 kts 200°
2026-05-06 15:04 47.48730 8.74956 33908 ft 396 kts 200°
2026-05-06 15:04 47.43476 8.72388 33906 ft 399 kts 200°
2026-05-06 15:05 47.38216 8.69818 33912 ft 402 kts 200°
2026-05-06 15:05 47.32897 8.67225 33907 ft 401 kts 200°
2026-05-06 15:06 47.27580 8.64639 33909 ft 400 kts 200°
2026-05-06 15:06 47.22306 8.62146 33895 ft 403 kts 194°
2026-05-06 15:07 47.16647 8.61494 33895 ft 409 kts 186°
2026-05-06 15:07 47.10986 8.60956 33878 ft 408 kts 188°
2026-05-06 15:08 47.05347 8.60113 33883 ft 405 kts 190°
2026-05-06 15:08 46.99778 8.59163 33893 ft 402 kts 190°
2026-05-06 15:09 46.94250 8.58196 33887 ft 401 kts 190°
2026-05-06 15:09 46.88667 8.57247 33890 ft 404 kts 190°
2026-05-06 15:10 46.83077 8.56318 33894 ft 402 kts 190°
2026-05-06 15:10 46.77571 8.55409 33895 ft 397 kts 189°
2026-05-06 15:11 46.72093 8.54522 33899 ft 398 kts 190°
2026-05-06 15:11 46.66596 8.53623 33929 ft 397 kts 190°
2026-05-06 15:11 46.63870 8.53191 32971 ft 395 kts 191°
2026-05-06 15:12 46.60984 8.52701 30799 ft 440 kts 191°
2026-05-06 15:12 46.58014 8.52192 30579 ft 420 kts 191°
2026-05-06 15:12 46.55147 8.51729 30176 ft 404 kts 190°
2026-05-06 15:12 46.52428 8.51297 29804 ft 391 kts 190°
2026-05-06 15:13 46.49759 8.50871 29356 ft 380 kts 191°
2026-05-06 15:13 46.47134 8.50445 28924 ft 372 kts 191°
2026-05-06 15:13 46.44604 8.50037 28515 ft 368 kts 189°
2026-05-06 15:13 46.42035 8.49840 28002 ft 370 kts 185°
2026-05-06 15:14 46.39480 8.49837 27468 ft 369 kts 184°
2026-05-06 15:14 46.36919 8.49885 26802 ft 366 kts 184°
2026-05-06 15:14 46.34371 8.49923 26151 ft 363 kts 184°
2026-05-06 15:14 46.31841 8.49933 25462 ft 365 kts 184°
2026-05-06 15:15 46.29328 8.49916 25358 ft 364 kts 184°
2026-05-06 15:15 46.26776 8.49888 25036 ft 368 kts 184°
2026-05-06 15:15 46.24193 8.49841 24670 ft 372 kts 184°
2026-05-06 15:15 46.21587 8.49787 24342 ft 375 kts 184°
2026-05-06 15:16 46.18999 8.49734 24054 ft 378 kts 184°
2026-05-06 15:16 46.16348 8.49680 23710 ft 381 kts 184°
2026-05-06 15:16 46.13689 8.49625 23427 ft 383 kts 184°
2026-05-06 15:16 46.11002 8.49702 23060 ft 388 kts 174°
2026-05-06 15:17 46.08391 8.50710 22677 ft 394 kts 164°
2026-05-06 15:17 46.05831 8.52121 22360 ft 389 kts 162°
2026-05-06 15:17 46.03381 8.53523 22031 ft 377 kts 162°
2026-05-06 15:17 46.00982 8.54906 21594 ft 363 kts 162°
2026-05-06 15:18 45.98658 8.56236 20821 ft 355 kts 162°
2026-05-06 15:18 45.96350 8.57526 19918 ft 353 kts 162°
2026-05-06 15:18 45.94088 8.58759 19144 ft 349 kts 162°
2026-05-06 15:18 45.91804 8.59980 18486 ft 349 kts 162°
2026-05-06 15:19 45.89578 8.61302 18162 ft 345 kts 152°
2026-05-06 15:19 45.87626 8.63286 18009 ft 345 kts 145°
2026-05-06 15:19 45.85751 8.65480 17920 ft 349 kts 144°
2026-05-06 15:19 45.83879 8.67714 17873 ft 350 kts 144°
2026-05-06 15:20 45.82058 8.69904 17846 ft 338 kts 144°
2026-05-06 15:20 45.80298 8.72025 17544 ft 327 kts 144°
2026-05-06 15:20 45.78552 8.74093 17159 ft 319 kts 145°
2026-05-06 15:20 45.76851 8.76080 16656 ft 312 kts 146°
2026-05-06 15:21 45.75077 8.77784 15949 ft 305 kts 154°
2026-05-06 15:21 45.73223 8.79207 15269 ft 301 kts 156°
2026-05-06 15:21 45.71389 8.80550 14887 ft 288 kts 157°
2026-05-06 15:21 45.69663 8.81814 14506 ft 277 kts 157°
2026-05-06 15:22 45.67964 8.83060 14005 ft 273 kts 157°
2026-05-06 15:22 45.66280 8.84296 13451 ft 270 kts 156°
2026-05-06 15:22 45.64607 8.85536 12848 ft 269 kts 156°
2026-05-06 15:22 45.62956 8.86773 12279 ft 267 kts 156°
2026-05-06 15:23 45.61266 8.87806 11655 ft 263 kts 168°
2026-05-06 15:23 45.59518 8.88378 11135 ft 259 kts 172°
2026-05-06 15:23 45.57743 8.88862 10559 ft 258 kts 172°
2026-05-06 15:23 45.55979 8.89327 10016 ft 257 kts 173°
2026-05-06 15:24 45.54226 8.89777 9451 ft 255 kts 173°
2026-05-06 15:24 45.52486 8.90217 8887 ft 253 kts 172°
2026-05-06 15:24 45.50751 8.90658 8343 ft 251 kts 172°
2026-05-06 15:24 45.49034 8.91101 7819 ft 249 kts 172°
2026-05-06 15:25 45.47355 8.91542 7325 ft 247 kts 171°
2026-05-06 15:25 45.45664 8.91991 6803 ft 246 kts 171°
2026-05-06 15:25 45.43986 8.92443 6345 ft 243 kts 171°
2026-05-06 15:25 45.42339 8.92892 5915 ft 245 kts 170°
2026-05-06 15:26 45.40672 8.93348 5661 ft 242 kts 170°
2026-05-06 15:26 45.39040 8.93797 5403 ft 236 kts 170°
2026-05-06 15:26 45.37445 8.94234 5146 ft 229 kts 173°
2026-05-06 15:26 45.35924 8.93977 4898 ft 221 kts 211°
2026-05-06 15:27 45.35026 8.92272 4673 ft 225 kts 257°
2026-05-06 15:27 45.35235 8.90071 4437 ft 238 kts 298°
2026-05-06 15:27 45.36390 8.88400 4455 ft 236 kts 320°
2026-05-06 15:27 45.37732 8.86952 4435 ft 246 kts 321°
2026-05-06 15:28 45.39085 8.85508 4316 ft 245 kts 322°
2026-05-06 15:28 45.40472 8.84083 4188 ft 244 kts 323°
2026-05-06 15:28 45.41865 8.82693 4057 ft 244 kts 323°
2026-05-06 15:28 45.43264 8.81309 3803 ft 246 kts 324°
2026-05-06 15:29 45.44644 8.79945 3554 ft 239 kts 324°
2026-05-06 15:29 45.45954 8.78633 3330 ft 220 kts 324°
2026-05-06 15:29 45.47241 8.77610 3096 ft 205 kts 346°
2026-05-06 15:29 45.48584 8.77306 3025 ft 192 kts 353°
2026-05-06 15:30 45.49901 8.76986 3004 ft 192 kts 349°
2026-05-06 15:30 45.51229 8.76608 2853 ft 194 kts 349°
2026-05-06 15:30 45.52514 8.76261 2555 ft 183 kts 350°
2026-05-06 15:30 45.53708 8.75935 2336 ft 168 kts 349°
2026-05-06 15:31 45.54826 8.75622 2062 ft 159 kts 350°
2026-05-06 15:31 45.55902 8.75311 1765 ft 160 kts 350°
2026-05-06 15:31 45.56982 8.75004 1521 ft 154 kts 351°
2026-05-06 15:32 45.58984 8.74469 1226 ft 139 kts 351°
2026-05-06 15:32 45.59930 8.74204 1077 ft 137 kts 351°
2026-05-06 15:32 45.60861 8.73956 890 ft 135 kts 351°
2026-05-06 15:32 45.61823 8.73698 917 ft 153 kts 350°
2026-05-06 15:33 45.62921 8.73396 1500 ft 169 kts 349°
2026-05-06 15:33 45.64076 8.73062 2012 ft 167 kts 352°
2026-05-06 15:33 45.65267 8.72748 1975 ft 179 kts 350°
2026-05-06 15:33 45.66559 8.72489 2057 ft 194 kts
2026-05-06 15:34 45.67758 8.73345 2168 ft 202 kts 58°
2026-05-06 15:34 45.67974 8.75267 2323 ft 206 kts 103°
2026-05-06 15:34 45.67851 8.77245 2864 ft 203 kts 86°
2026-05-06 15:34 45.68030 8.79331 3131 ft 211 kts 81°
2026-05-06 15:35 45.68117 8.81375 3347 ft 209 kts 109°
2026-05-06 15:35 45.67231 8.82920 3623 ft 209 kts 157°
2026-05-06 15:35 45.65869 8.83610 4053 ft 209 kts 162°
2026-05-06 15:35 45.64452 8.84305 4030 ft 215 kts 161°
2026-05-06 15:36 45.63061 8.84985 4016 ft 211 kts 162°
2026-05-06 15:36 45.61667 8.85636 4032 ft 208 kts 163°
2026-05-06 15:36 45.60278 8.86253 3968 ft 209 kts 164°
2026-05-06 15:36 45.58935 8.86844 3867 ft 195 kts 163°
2026-05-06 15:37 45.57659 8.87408 3605 ft 189 kts 163°
2026-05-06 15:37 45.56409 8.87948 3354 ft 187 kts 163°
2026-05-06 15:37 45.55167 8.88472 3159 ft 184 kts 164°
2026-05-06 15:37 45.53958 8.88985 3080 ft 183 kts 163°
2026-05-06 15:38 45.52730 8.89503 3042 ft 184 kts 163°
2026-05-06 15:38 45.51493 8.90019 3020 ft 185 kts 164°
2026-05-06 15:38 45.50255 8.90537 3003 ft 186 kts 164°
2026-05-06 15:38 45.49432 8.90883 2996 ft 186 kts 163°
2026-05-06 15:39 45.47785 8.90786 2962 ft 186 kts 219°
2026-05-06 15:39 45.47271 8.89795 3015 ft 188 kts 249°
2026-05-06 15:39 45.46731 8.87430 3055 ft 190 kts 252°
2026-05-06 15:39 45.46461 8.86231 3033 ft 190 kts 251°
2026-05-06 15:40 45.46300 8.84379 2975 ft 192 kts 287°
2026-05-06 15:40 45.47097 8.82883 2942 ft 196 kts 321°
2026-05-06 15:40 45.48174 8.81686 2826 ft 195 kts 322°
2026-05-06 15:40 45.49235 8.80495 2696 ft 192 kts 322°
2026-05-06 15:41 45.50274 8.79345 2549 ft 190 kts 323°
2026-05-06 15:41 45.51332 8.78207 2438 ft 191 kts 323°
2026-05-06 15:41 45.52395 8.77071 2323 ft 190 kts 324°
2026-05-06 15:41 45.53457 8.75946 2174 ft 188 kts 329°
2026-05-06 15:42 45.54685 8.75499 2088 ft 184 kts
2026-05-06 15:42 45.55964 8.75288 1924 ft 179 kts 349°
2026-05-06 15:42 45.57136 8.74957 1651 ft 165 kts 351°
2026-05-06 15:42 45.58245 8.74687 1397 ft 160 kts 350°
2026-05-06 15:43 45.59313 8.74365 1158 ft 157 kts 349°
2026-05-06 15:43 45.60337 8.74071 952 ft 144 kts 350°
2026-05-06 15:43 45.61299 8.73809 831 ft 137 kts 351°
2026-05-06 15:43 45.62219 8.73567 743 ft 129 kts 351°
2026-05-06 15:44 45.62913 8.73377 738 ft 47 kts 347°
2026-05-06 15:44 45.63174 8.73208 740 ft 31 kts 319°
2026-05-06 15:44 45.63285 8.73019 741 ft 18 kts 304°
2026-05-06 15:44 45.63343 8.72894 741 ft 11 kts 304°
2026-05-06 15:45 45.63368 8.72843 740 ft 0 kts 304°
2026-05-06 15:46 45.63368 8.72842 740 ft 0 kts 304°
2026-05-06 15:46 45.63372 8.72834 741 ft 1 kts 304°
2026-05-06 15:46 45.63379 8.72819 741 ft 2 kts 304°
2026-05-06 15:46 45.63390 8.72796 741 ft 3 kts 302°
2026-05-06 15:47 45.63401 8.72761 741 ft 4 kts 289°
2026-05-06 15:47 45.63407 8.72706 741 ft 9 kts 274°
2026-05-06 15:47 45.63405 8.72611 741 ft 10 kts 265°
2026-05-06 15:47 45.63391 8.72513 742 ft 10 kts 257°
2026-05-06 15:48 45.63376 8.72409 742 ft 11 kts 258°
2026-05-06 15:48 45.63360 8.72298 740 ft 12 kts 259°
2026-05-06 15:48 45.63345 8.72183 741 ft 12 kts 259°
2026-05-06 15:48 45.63330 8.72069 741 ft 12 kts 259°
2026-05-06 15:49 45.63313 8.71941 741 ft 14 kts 259°
2026-05-06 15:49 45.63295 8.71804 741 ft 14 kts 259°
2026-05-06 15:49 45.63257 8.71677 741 ft 14 kts 206°
2026-05-06 15:49 45.63161 8.71688 740 ft 14 kts 168°
2026-05-06 15:50 45.63063 8.71715 740 ft 15 kts 169°
2026-05-06 15:50 45.62967 8.71709 740 ft 12 kts 227°
2026-05-06 15:50 45.62944 8.71603 741 ft 10 kts 257°
2026-05-06 15:50 45.62906 8.71574 741 ft 7 kts 177°
2026-05-06 15:51 45.62881 8.71579 740 ft 0 kts 168°